When you browse on this site, cookies collect data to enhance your experience and personalize the content and advertising you see.
Visit our Privacy Policy to learn more. By continuing to use the site, you agree to this use of cookies and data.
  • In Hungary
  • List of Countries
  • For 7 days
  • Water Temperature
  • Weather Map
  • News
  • Weather Widgets
  • user-avatar
    Login

    Hourly Weather Mohnachi

    Today, 21 January, Tuesday

    Time Temperature Precipitation Wind Pressure Humidity
    00:00 -2°C° 0 mm 5 mps 739 mmHg 88%
    01:00 -2°C° 0 mm 5 mps 739 mmHg 88%
    02:00 -3°C° 0 mm 6 mps 738 mmHg 90%
    03:00 -2°C° 0.2 mm 6 mps 737 mmHg 90%
    04:00 -2°C° 0.2 mm 6 mps 736 mmHg 91%
    05:00 -2°C° 0.2 mm 6 mps 735 mmHg 91%
    06:00 -1°C° 0 mm 6 mps 734 mmHg 90%
    07:00 -1°C° 0 mm 6 mps 733 mmHg 90%
    08:00 -1°C° 0 mm 6 mps 733 mmHg 86%
    09:00 -1°C° 0.1 mm 6 mps 732 mmHg 87%
    10:00 -1°C° 0.1 mm 6 mps 732 mmHg 88%
    11:00 +1°C° 0.1 mm 6 mps 731 mmHg 89%
    12:00 +1°C° 0.1 mm 6 mps 730 mmHg 89%
    13:00 +1°C° 0.1 mm 6 mps 730 mmHg 89%
    14:00 +2°C° 0.1 mm 6 mps 729 mmHg 89%
    15:00 +2°C° 0.6 mm 6 mps 728 mmHg 90%
    16:00 +2°C° 0.6 mm 6 mps 728 mmHg 91%
    17:00 +2°C° 0.6 mm 6 mps 727 mmHg 92%
    18:00 +2°C° 0.3 mm 7 mps 727 mmHg 87%
    19:00 0°C° 0.3 mm 7 mps 727 mmHg 82%
    20:00 -1°C° 0.3 mm 7 mps 728 mmHg 77%
    21:00 -1°C° 0 mm 7 mps 728 mmHg 78%
    22:00 -2°C° 0 mm 6 mps 728 mmHg 78%
    23:00 -3°C° 0 mm 6 mps 728 mmHg 78%

    Tomorrow, 22 January, Wednesday

    Time Temperature Precipitation Wind Pressure Humidity
    00:00 -3°C° 0 mm 6 mps 728 mmHg 78%
    01:00 -4°C° 0 mm 5 mps 728 mmHg 79%
    02:00 -4°C° 0 mm 5 mps 728 mmHg 80%
    03:00 -4°C° 0 mm 5 mps 727 mmHg 81%
    04:00 -4°C° 0 mm 5 mps 726 mmHg 82%
    05:00 -4°C° 0 mm 5 mps 725 mmHg 83%
    06:00 -4°C° 0.1 mm 5 mps 725 mmHg 83%
    07:00 -4°C° 0.1 mm 5 mps 724 mmHg 83%
    08:00 -4°C° 0.1 mm 6 mps 724 mmHg 83%
    09:00 -3°C° 0.1 mm 6 mps 724 mmHg 81%
    10:00 -2°C° 0.1 mm 5 mps 723 mmHg 78%
    11:00 -2°C° 0.1 mm 5 mps 723 mmHg 75%
    12:00 -2°C° 0.2 mm 5 mps 723 mmHg 74%
    13:00 -2°C° 0.2 mm 5 mps 723 mmHg 72%
    14:00 -4°C° 0.2 mm 5 mps 723 mmHg 71%
    15:00 -4°C° 0 mm 5 mps 723 mmHg 72%
    16:00 -5°C° 0 mm 5 mps 724 mmHg 74%
    17:00 -5°C° 0 mm 5 mps 724 mmHg 75%
    18:00 -5°C° 0 mm 5 mps 725 mmHg 76%
    19:00 -5°C° 0 mm 5 mps 725 mmHg 77%
    20:00 -6°C° 0 mm 5 mps 726 mmHg 77%
    21:00 -6°C° 0 mm 6 mps 726 mmHg 78%
    22:00 -6°C° 0 mm 6 mps 727 mmHg 79%
    23:00 -6°C° 0 mm 6 mps 727 mmHg 80%

    Day after tomorrow, 23 January, Thursday

    Time Temperature Precipitation Wind Pressure Humidity
    00:00 -8°C° 0 mm 6 mps 728 mmHg 77%
    01:00 -8°C° 0 mm 6 mps 728 mmHg 75%
    02:00 -8°C° 0 mm 6 mps 729 mmHg 73%
    03:00 -9°C° 0 mm 6 mps 729 mmHg 73%
    04:00 -9°C° 0 mm 6 mps 730 mmHg 73%
    05:00 -9°C° 0 mm 6 mps 730 mmHg 73%
    06:00 -9°C° 0 mm 6 mps 731 mmHg 69%
    07:00 -9°C° 0 mm 6 mps 732 mmHg 65%
    08:00 -8°C° 0 mm 5 mps 732 mmHg 61%
    09:00 -9°C° 0 mm 6 mps 732 mmHg 58%
    10:00 -8°C° 0 mm 6 mps 733 mmHg 55%
    11:00 -8°C° 0 mm 6 mps 733 mmHg 51%
    12:00 -8°C° 0 mm 6 mps 733 mmHg 54%
    13:00 -6°C° 0 mm 6 mps 733 mmHg 56%
    14:00 -6°C° 0 mm 6 mps 733 mmHg 58%
    15:00 -6°C° 0 mm 6 mps 734 mmHg 59%
    16:00 -8°C° 0 mm 6 mps 734 mmHg 60%
    17:00 -7°C° 0 mm 5 mps 734 mmHg 62%
    18:00 -7°C° 0 mm 4 mps 735 mmHg 63%
    19:00 -8°C° 0 mm 4 mps 735 mmHg 65%
    20:00 -7°C° 0 mm 3 mps 735 mmHg 66%
    21:00 -7°C° 0 mm 3 mps 736 mmHg 69%
    22:00 -7°C° 0 mm 3 mps 736 mmHg 72%
    23:00 -6°C° 0 mm 2 mps 736 mmHg 75%

    24 January, Friday

    Time Temperature Precipitation Wind Pressure Humidity
    00:00 -7°C° 0 mm 3 mps 736 mmHg 76%
    01:00 -6°C° 0 mm 3 mps 735 mmHg 77%
    02:00 -6°C° 0 mm 3 mps 735 mmHg 78%
    03:00 -6°C° 0 mm 3 mps 734 mmHg 81%
    04:00 -5°C° 0 mm 4 mps 734 mmHg 84%
    05:00 -5°C° 0 mm 4 mps 733 mmHg 87%
    06:00 -5°C° 0.1 mm 4 mps 733 mmHg 86%
    07:00 -4°C° 0.1 mm 4 mps 732 mmHg 86%
    08:00 -5°C° 0.1 mm 5 mps 732 mmHg 85%
    09:00 -4°C° 0.1 mm 4 mps 732 mmHg 88%
    10:00 -3°C° 0.1 mm 4 mps 731 mmHg 90%
    11:00 -3°C° 0.1 mm 4 mps 731 mmHg 93%
    12:00 -2°C° 0.1 mm 4 mps 731 mmHg 93%
    13:00 -1°C° 0.1 mm 5 mps 731 mmHg 93%
    14:00 -1°C° 0.1 mm 5 mps 730 mmHg 93%
    15:00 0°C° 0 mm 5 mps 730 mmHg 93%
    16:00 0°C° 0 mm 4 mps 730 mmHg 92%
    17:00 0°C° 0 mm 4 mps 730 mmHg 91%
    18:00 0°C° 0.1 mm 4 mps 731 mmHg 93%
    19:00 +1°C° 0.1 mm 3 mps 731 mmHg 94%
    20:00 +1°C° 0.1 mm 3 mps 731 mmHg 96%
    21:00 +1°C° 0.4 mm 3 mps 731 mmHg 96%
    22:00 +1°C° 0.4 mm 3 mps 731 mmHg 96%
    23:00 +1°C° 0.4 mm 3 mps 731 mmHg 97%

    25 January, Saturday

    Time Temperature Precipitation Wind Pressure Humidity
    00:00 +1°C° 0.2 mm 3 mps 731 mmHg 97%
    01:00 +1°C° 0.2 mm 3 mps 731 mmHg 97%
    02:00 +2°C° 0.2 mm 2 mps 731 mmHg 97%
    03:00 +2°C° 0.1 mm 2 mps 731 mmHg 97%
    04:00 +2°C° 0.1 mm 2 mps 731 mmHg 97%
    05:00 +2°C° 0.1 mm 2 mps 731 mmHg 97%
    06:00 +2°C° 0.1 mm 2 mps 731 mmHg 97%
    07:00 +2°C° 0.1 mm 2 mps 731 mmHg 97%
    08:00 +2°C° 0.1 mm 2 mps 731 mmHg 97%
    09:00 +1°C° 0.2 mm 3 mps 731 mmHg 97%
    10:00 +1°C° 0.2 mm 3 mps 732 mmHg 97%
    11:00 +1°C° 0.2 mm 3 mps 732 mmHg 97%
    12:00 +1°C° 0.1 mm 3 mps 732 mmHg 97%
    13:00 +1°C° 0.1 mm 3 mps 731 mmHg 96%
    14:00 +1°C° 0.1 mm 3 mps 731 mmHg 96%
    15:00 +1°C° 0.1 mm 3 mps 731 mmHg 96%
    16:00 +2°C° 0.1 mm 2 mps 732 mmHg 97%
    17:00 +2°C° 0.1 mm 2 mps 732 mmHg 97%
    18:00 +1°C° 0 mm 2 mps 732 mmHg 96%
    19:00 +1°C° 0 mm 2 mps 732 mmHg 96%
    20:00 +1°C° 0 mm 2 mps 732 mmHg 95%
    21:00 +1°C° 0 mm 2 mps 732 mmHg 95%
    22:00 +1°C° 0 mm 2 mps 733 mmHg 96%
    23:00 -1°C° 0 mm 2 mps 733 mmHg 96%

    26 January, Sunday

    Time Temperature Precipitation Wind Pressure Humidity
    00:00 -1°C° 0 mm 2 mps 733 mmHg 95%
    01:00 -1°C° 0 mm 3 mps 733 mmHg 95%
    02:00 0°C° 0 mm 3 mps 733 mmHg 94%
    03:00 -1°C° 0 mm 3 mps 733 mmHg 94%
    04:00 -1°C° 0 mm 2 mps 733 mmHg 93%
    05:00 -1°C° 0 mm 2 mps 733 mmHg 93%
    06:00 -1°C° 0 mm 2 mps 734 mmHg 93%
    07:00 -1°C° 0 mm 2 mps 734 mmHg 94%
    08:00 -1°C° 0 mm 2 mps 734 mmHg 94%
    09:00 -1°C° 0 mm 2 mps 734 mmHg 93%
    10:00 +1°C° 0 mm 2 mps 734 mmHg 91%
    11:00 +1°C° 0 mm 2 mps 734 mmHg 89%
    12:00 +1°C° 0 mm 2 mps 734 mmHg 90%
    13:00 +1°C° 0 mm 2 mps 734 mmHg 90%
    14:00 +2°C° 0 mm 2 mps 734 mmHg 90%
    15:00 +1°C° 0 mm 2 mps 734 mmHg 93%
    16:00 +1°C° 0 mm 2 mps 734 mmHg 95%
    17:00 +1°C° 0 mm 2 mps 734 mmHg 97%
    18:00 +1°C° 0.1 mm 2 mps 734 mmHg 97%
    19:00 +1°C° 0.1 mm 2 mps 734 mmHg 97%
    20:00 +1°C° 0.1 mm 2 mps 734 mmHg 96%
    21:00 -1°C° 0 mm 2 mps 734 mmHg 96%
    22:00 -1°C° 0 mm 2 mps 734 mmHg 95%
    23:00 -2°C° 0 mm 2 mps 734 mmHg 95%
    Show more